Frisco, NC

6:28 PM EST on February 27, 2017 (GMT -0500)
Mitchell

Weather History for KHSE - January, 2015

Change the Weather History Date:

Sunday, January 4, 2015

  Actual Average Record
Temperature  
Mean Temperature 67 °F 47 °F  
Max Temperature 70 °F 54 °F 75 °F (1972)
Min Temperature 64 °F 40 °F 12 °F (1983)
Degree Days  
Heating Degree Days 0 18  
Month to date heating degree days 40 379  
Since 1 July heating degree days 903 697  
Cooling Degree Days 2 0  
Month to date cooling degree days 2 0  
Year to date cooling degree days 2 1711  
Growing Degree Days 17 (Base 50)    
Moisture  
Dew Point 65 °F    
Average Humidity 94    
Maximum Humidity 100    
Minimum Humidity 87    
Precipitation  
Precipitation 0.01 in 0.14 in 2.57 in (1940)
Month to date precipitation 0.84 3.43  
Year to date precipitation 0.84 57.20  
Snow  
Snow 0.00 in - - ()
Month to date snowfall 0.0  
Since 1 July snowfall 0.0  
Snow Depth 0.00 in    
Sea Level Pressure  
Sea Level Pressure 30.09 in    
Wind  
Wind Speed 16 mph (SW)    
Max Wind Speed 26 mph    
Max Gust Speed 37 mph    
Visibility 5 miles    
Events Rain    
T = Trace of Precipitation, MM = Missing Value Source: NWS Daily Summary

Daily Weather History Graph

Daily Weather History Graph

Search for Another Location

Airport or City:

Trip Planner

Search our weather history database for the weather conditions in past years. The results will help you decide how hot, cold, wet, or windy it might be!

Date:

Astronomy

Jan. 04, 2015 Rise Set
Actual Time 7:11 AM EST 5:03 PM EST
Civil Twilight 6:43 AM EST 5:31 PM EST
Nautical Twilight 6:11 AM EST 6:03 PM EST
Astronomical Twilight 5:41 AM EST 6:33 PM EST
Moon 4:59 PM EST (1/4) 6:24 AM EST (1/4)
Length of Visible Light 10h 48m
Length of Day
9h 51m
Full, 100% of the Moon is Illuminated
Jan 4
Full
Jan 4
Full
Jan 13
Last Quarter
Jan 20
New
Jan 26
First Quarter

Hourly Weather History & Observations

Time (EST) Temp. Dew Point Humidity Pressure Visibility Wind Dir Wind Speed Gust Speed Precip Events Conditions
12:51 AM 68.0 °F 64.9 °F 90% 30.21 in 5.0 mi SSW 15.0 mph 24.2 mph N/A   Mostly Cloudy
1:51 AM 66.9 °F 64.9 °F 93% 30.21 in 5.0 mi SSW 16.1 mph 25.3 mph N/A   Overcast
2:31 AM 66.9 °F 64.9 °F 93% 30.20 in 5.0 mi SSW 13.8 mph 21.9 mph N/A   Mostly Cloudy
2:51 AM 66.9 °F 64.9 °F 93% 30.19 in 5.0 mi SSW 13.8 mph 23.0 mph N/A   Overcast
3:51 AM 66.9 °F 64.9 °F 93% 30.17 in 5.0 mi SSW 18.4 mph 25.3 mph N/A   Overcast
4:51 AM 66.9 °F 64.9 °F 93% 30.16 in 5.0 mi SSW 15.0 mph 23.0 mph N/A   Overcast
5:05 AM 66.9 °F 64.9 °F 93% 30.16 in 5.0 mi SSW 16.1 mph - N/A   Overcast
5:51 AM 66.9 °F 64.9 °F 93% 30.16 in 6.0 mi SSW 17.3 mph 23.0 mph N/A   Overcast
6:09 AM 68.0 °F 66.0 °F 93% 30.16 in 6.0 mi SSW 17.3 mph - N/A   Overcast
6:51 AM 66.9 °F 66.0 °F 97% 30.16 in 6.0 mi SSW 16.1 mph - N/A   Overcast
7:51 AM 68.0 °F 66.0 °F 93% 30.16 in 4.0 mi SSW 15.0 mph 21.9 mph N/A   Mostly Cloudy
8:03 AM 68.0 °F 66.0 °F 93% 30.16 in 4.0 mi SSW 15.0 mph - N/A   Mostly Cloudy
8:51 AM 68.0 °F 66.0 °F 93% 30.17 in 4.0 mi SSW 17.3 mph 25.3 mph N/A   Mostly Cloudy
9:51 AM 69.1 °F 66.9 °F 93% 30.17 in 4.0 mi SSW 16.1 mph 24.2 mph 0.00 in   Overcast
10:20 AM 69.1 °F 66.0 °F 90% 30.16 in 4.0 mi SW 15.0 mph - N/A   Overcast
10:47 AM 69.8 °F 66.2 °F 88% 30.15 in 4.0 mi SW 15.0 mph - N/A   Overcast
10:51 AM 70.0 °F 66.9 °F 90% 30.15 in 4.0 mi SW 15.0 mph - N/A   Overcast
11:51 AM 69.1 °F 66.0 °F 90% 30.11 in 3.0 mi SW 10.4 mph - N/A   Overcast
12:29 PM 68.0 °F 66.0 °F 93% 30.10 in 2.5 mi WSW 19.6 mph 34.5 mph 0.01 in Rain Light Rain
12:35 PM 68.0 °F 66.9 °F 96% 30.10 in 4.0 mi WSW 16.1 mph 31.1 mph 0.01 in Rain Light Rain
12:47 PM 68.0 °F 66.2 °F 94% 30.09 in 4.0 mi WSW 15.0 mph 26.5 mph 0.01 in   Overcast
12:51 PM 66.9 °F 64.9 °F 93% 30.09 in 4.0 mi WSW 13.8 mph 24.2 mph 0.01 in   Overcast
1:03 PM 66.9 °F 64.9 °F 93% 30.08 in 3.0 mi WSW 19.6 mph 26.5 mph 0.00 in Rain Light Rain
1:51 PM 64.9 °F 64.0 °F 97% 30.07 in 5.0 mi SW 15.0 mph 21.9 mph 0.00 in   Overcast
2:51 PM 66.0 °F 62.1 °F 87% 30.05 in 6.0 mi SW 13.8 mph 25.3 mph 0.00 in   Overcast
3:51 PM 66.9 °F 64.0 °F 90% 30.04 in 6.0 mi SW 17.3 mph 27.6 mph N/A   Overcast
4:51 PM 66.9 °F 63.0 °F 87% 30.03 in 6.0 mi SW 16.1 mph 24.2 mph N/A   Mostly Cloudy
5:32 PM 66.9 °F 64.0 °F 90% 30.03 in 7.0 mi WSW 19.6 mph 27.6 mph N/A   Mostly Cloudy
5:40 PM 66.0 °F 64.0 °F 93% 30.03 in 7.0 mi SW 15.0 mph 25.3 mph N/A   Mostly Cloudy
5:51 PM 66.0 °F 64.0 °F 93% 30.04 in 6.0 mi WSW 16.1 mph 26.5 mph N/A   Overcast
6:51 PM 64.0 °F 63.0 °F 96% 30.03 in 6.0 mi WSW 15.0 mph - N/A   Mostly Cloudy
7:23 PM 64.9 °F 64.0 °F 97% 30.02 in 5.0 mi WSW 16.1 mph 24.2 mph N/A   Overcast
7:31 PM 64.9 °F 64.9 °F 100% 30.02 in 5.0 mi SW 17.3 mph 28.8 mph N/A   Overcast
7:51 PM 64.9 °F 64.9 °F 100% 30.02 in 5.0 mi SW 18.4 mph 27.6 mph N/A   Overcast
8:00 PM 64.9 °F 64.9 °F 100% 30.01 in 4.0 mi SW 16.1 mph 25.3 mph N/A   Overcast
8:16 PM 66.0 °F 66.0 °F 100% 29.99 in 6.0 mi SSW 25.3 mph 32.2 mph N/A   Mostly Cloudy
8:24 PM 66.0 °F 66.0 °F 100% 29.98 in 7.0 mi SSW 23.0 mph 33.4 mph N/A   Scattered Clouds
8:51 PM 66.9 °F 64.0 °F 90% 29.97 in 8.0 mi SW 21.9 mph 33.4 mph N/A   Clear
9:51 PM 66.9 °F 64.0 °F 90% 29.97 in 6.0 mi WSW 19.6 mph 29.9 mph N/A   Clear
10:51 PM 64.9 °F 62.1 °F 90% 29.99 in 6.0 mi WSW 17.3 mph 26.5 mph N/A   Clear
11:51 PM 64.0 °F 60.1 °F 87% 30.01 in 7.0 mi WSW 15.0 mph 23.0 mph N/A   Partly Cloudy